Wind_Speed
59 61 58 57 54 54 56 57 60 49 44 44 44 40 38 35 34 32 24 26 27 26 30 32 34 23 22 17 19 19 16 13 14 12 13 13 11 9 7 5 8 9 13 17 21 27 30 30 35
60 61 62 63 58 58 64 66 65 59 51 43 43 43 40 39 37 41 33 23 25 22 20 24 31 32 29 19 20 21 18 15 15 16 15 16 11 10 9 8 12 14 17 20 24 30 34 37 37
59 62 63 62 61 64 70 72 70 66 59 54 45 46 43 43 41 36 31 32 29 24 37 24 32 40 36 19 21 22 19 19 18 18 17 17 14 10 10 10 14 17 19 24 26 32 35 37 38
57 62 62 63 67 69 75 78 72 70 64 56 49 48 47 45 44 38 34 33 30 21 21 19 20 35 30 25 21 22 21 20 13 18 20 19 17 14 10 12 17 21 25 28 27 31 36 38 40
54 56 61 64 70 76 77 82 79 73 68 60 55 48 49 50 50 45 41 36 31 31 30 28 28 20 28 28 21 22 20 21 20 21 21 18 20 16 14 14 19 24 26 28 27 35 34 36 41
51 55 58 61 68 75 82 88 84 78 73 68 63 59 54 51 53 51 44 42 35 33 33 27 20 29 29 21 25 22 23 23 20 19 18 20 17 17 18 20 24 25 27 30 32 36 38 42 45
58 57 56 59 61 68 78 90 89 85 78 76 69 65 59 53 52 55 49 49 54 36 35 35 29 27 25 33 27 41 32 25 22 23 22 23 25 20 22 28 28 27 29 31 34 39 43 47 52
62 63 64 65 67 67 74 87 90 90 85 81 75 72 71 70 62 57 54 52 55 50 41 34 39 35 33 30 23 27 23 23 25 28 28 27 27 28 32 33 29 33 37 36 40 43 46 51 56
62 65 68 72 73 73 76 83 87 90 89 85 81 78 78 77 74 67 62 59 58 59 49 57 42 40 40 35 34 35 34 32 28 28 30 32 34 32 35 34 34 39 40 41 41 44 46 52 57
58 62 70 74 76 79 80 79 85 87 91 91 89 89 84 84 78 70 70 67 64 63 58 58 47 46 47 47 41 39 42 43 40 39 39 34 37 34 31 34 41 43 42 42 46 47 48 54 56
61 62 65 70 76 80 80 83 88 85 88 96 96 93 88 85 81 75 73 73 70 66 65 61 56 50 49 49 49 45 42 45 46 42 37 35 35 33 34 37 46 45 45 47 49 47 49 56 57
68 69 69 71 70 74 75 80 88 90 88 93 101 97 94 88 83 81 78 78 77 72 69 67 63 59 51 47 44 46 46 45 45 45 40 36 37 40 39 47 48 48 47 49 50 51 52 56 60
73 73 74 75 74 76 70 72 82 84 95 100 98 103 99 96 89 88 81 81 81 78 72 69 71 64 62 58 48 45 48 47 46 46 48 45 41 44 47 49 51 50 48 49 52 53 58 60 61
73 77 82 83 80 79 73 80 81 85 96 105 104 100 106 103 98 95 88 83 83 82 75 71 72 72 71 67 64 57 56 50 46 50 50 50 48 47 49 51 51 49 50 51 53 54 58 60 65
76 78 77 79 80 80 80 82 86 91 95 105 108 104 104 109 110 108 97 89 84 79 76 74 78 76 74 75 71 67 59 55 52 48 49 51 52 50 50 55 53 54 53 51 57 55 57 64 63
78 79 78 79 77 75 76 82 82 90 99 105 110 108 106 106 109 107 104 94 89 85 82 79 66 73 78 79 78 69 65 60 54 53 52 52 55 57 56 54 57 60 57 56 54 55 63 59 52
85 85 82 79 74 71 72 80 81 86 99 107 112 109 109 109 103 105 104 101 95 90 78 78 75 64 71 79 78 75 68 67 66 62 57 58 57 57 59 60 58 56 57 57 63 59 57 53 60
75 74 74 74 71 66 69 77 79 84 97 109 115 114 111 111 107 103 104 103 101 96 84 75 75 72 70 72 72 77 74 67 70 67 61 59 60 61 59 60 62 63 63 64 48 47 59 61 56
66 68 68 71 72 64 69 73 80 84 96 110 120 119 115 112 114 106 101 103 101 97 91 81 74 70 64 62 73 70 71 75 70 65 61 59 59 59 60 64 63 63 60 55 63 58 60 56 61
54 55 62 66 69 66 74 72 79 88 98 109 121 124 120 114 114 110 102 98 98 102 88 83 64 59 67 62 63 68 69 70 73 69 63 59 57 58 60 60 59 58 62 64 67 67 59 63 68
50 50 55 60 68 68 67 66 72 90 98 109 119 127 124 119 117 114 103 94 95 99 89 62 61 66 70 62 57 61 65 69 70 73 71 64 62 61 61 60 59 60 58 64 64 58 59 63 70
45 49 52 57 58 61 58 59 72 87 97 108 119 127 129 123 117 116 106 96 92 94 90 70 58 63 65 59 56 56 58 69 67 67 67 64 66 63 62 58 54 54 57 62 62 67 56 62 62
45 47 47 49 51 48 54 55 68 76 94 105 114 121 130 124 118 115 105 99 94 94 89 60 60 57 56 54 53 53 53 61 62 55 58 60 65 60 55 49 53 53 58 64 59 44 47 53 58
48 43 39 43 43 42 47 48 59 65 86 97 105 113 123 123 115 113 109 107 97 94 87 72 66 60 57 53 52 51 54 56 56 54 55 52 53 46 44 46 46 52 58 37 35 38 46 50 45
46 47 39 38 38 34 38 38 45 62 69 88 97 104 112 121 115 113 109 107 100 97 88 67 68 73 62 56 52 46 54 53 51 49 50 51 45 43 47 50 48 53 26 28 38 46 47 42 36
49 47 38 34 32 30 31 35 47 52 59 78 91 97 106 120 116 112 110 111 107 104 94 81 72 66 57 50 39 47 49 50 53 47 38 40 36 40 41 47 37 20 27 36 45 50 35 30 35
46 47 37 30 25 22 21 32 40 47 63 73 85 89 103 113 118 115 114 114 111 109 104 89 75 62 44 48 55 53 49 49 47 44 33 33 38 39 33 25 23 25 31 43 49 38 31 35 40
43 44 36 28 18 14 20 26 31 46 58 66 75 84 98 107 115 116 116 117 114 112 113 96 84 69 55 51 49 55 50 43 39 38 28 33 34 30 25 25 27 29 38 43 45 31 34 39 42
42 41 33 25 14 11 19 25 30 36 47 57 66 77 88 101 111 117 116 120 115 111 117 92 98 89 67 57 46 45 47 46 45 35 30 33 35 31 28 23 25 31 42 44 35 34 38 35 42
41 41 33 26 15 14 17 22 26 31 41 52 60 69 82 95 109 118 117 123 114 110 110 109 101 90 73 62 55 40 36 36 43 32 29 32 34 32 27 25 30 41 42 46 34 38 37 36 43
Wind_Direction
226 229 223 224 226 232 240 243 235 221 217 211 210 209 205 206 195 208 211 226 219 207 227 247 247 247 240 218 216 226 233 230 230 237 245 259 277 299 289 292 296 318 320 316 325 334 342 345 340
229 230 227 227 229 233 239 239 233 226 225 218 212 212 207 210 204 204 207 213 222 241 226 228 254 262 250 222 230 231 231 236 235 249 260 270 271 274 279 282 292 302 311 304 311 327 336 340 342
233 232 230 230 232 231 236 237 234 231 229 225 217 213 212 212 217 220 213 207 213 236 237 245 254 254 244 243 240 235 232 242 231 240 258 275 278 283 277 282 290 293 301 301 308 327 332 336 335
234 232 233 230 230 232 234 238 234 233 230 219 218 216 215 214 219 220 223 213 207 229 240 224 245 245 222 239 224 223 226 236 241 246 253 266 272 274 284 299 305 301 297 304 306 327 328 328 328
233 232 231 230 230 230 233 236 234 232 231 221 215 213 221 217 220 218 219 205 200 231 243 237 235 245 241 239 222 226 237 252 258 261 258 267 275 283 276 295 309 303 304 304 305 321 320 323 325
235 234 230 229 231 232 231 235 235 230 233 227 222 222 221 222 222 218 218 204 198 221 235 215 223 220 230 257 238 232 257 252 261 262 256 256 273 279 287 287 298 302 308 308 300 311 313 316 316
240 237 233 230 228 233 234 234 234 233 234 232 223 227 215 222 226 225 223 218 212 209 228 238 235 237 233 219 242 264 250 246 247 257 260 264 270 281 281 284 297 298 305 307 303 305 309 314 314
242 240 238 236 233 233 234 232 235 234 233 233 225 224 225 227 232 230 229 230 224 221 218 227 238 243 240 225 233 251 245 252 255 256 260 268 273 279 281 282 289 302 310 307 308 308 313 310 312
242 242 241 239 238 237 238 234 234 234 233 233 228 219 230 230 234 231 232 232 231 231 217 223 229 232 237 231 235 241 247 248 254 259 263 268 271 278 282 289 295 304 308 308 309 306 309 311 313
249 246 242 241 240 239 241 239 239 234 233 232 231 229 226 232 231 230 231 233 234 232 227 224 231 231 234 239 243 246 250 250 255 258 267 264 272 274 279 285 296 304 305 303 306 303 309 309 312
255 252 247 244 241 241 242 241 242 238 235 233 230 229 229 225 229 229 233 231 235 236 235 233 229 230 240 242 246 248 254 253 256 257 266 269 271 275 280 289 298 302 303 306 306 306 308 310 311
260 258 256 253 247 241 239 240 243 241 239 237 232 231 230 216 221 231 232 231 232 233 239 242 238 229 232 244 243 247 251 252 252 260 263 265 270 273 287 294 296 299 303 302 303 309 308 309 310
264 262 261 259 255 253 250 243 240 242 240 238 235 231 228 219 217 230 227 231 232 232 232 241 245 239 234 231 239 243 245 246 252 257 265 269 269 276 285 289 294 296 300 303 305 306 307 307 310
266 264 264 261 260 260 257 254 252 245 239 240 236 233 230 224 224 227 227 227 230 233 233 235 242 245 240 235 227 234 246 253 254 258 261 263 268 274 285 289 292 295 298 299 304 307 306 306 309
269 267 263 264 262 257 255 252 249 247 240 235 236 232 233 230 231 232 230 225 224 230 233 235 241 243 244 246 241 240 248 249 253 261 260 262 268 276 285 291 290 292 296 298 301 305 307 307 312
274 271 268 264 258 256 249 250 245 243 239 232 231 230 229 231 230 231 230 224 224 222 232 233 241 245 244 245 247 246 249 250 251 254 259 264 270 277 287 288 289 290 296 298 303 306 308 311 306
273 274 272 269 266 258 249 250 246 241 237 232 227 227 226 227 228 228 227 223 221 224 226 230 235 241 244 245 250 250 248 248 252 256 258 261 267 274 281 285 289 294 296 297 300 305 306 304 305
274 273 271 269 265 260 253 250 248 242 235 230 226 222 223 223 224 224 224 223 220 222 223 228 232 239 245 246 249 251 251 250 252 255 259 261 266 274 280 282 284 291 297 302 306 297 301 303 307
275 272 269 267 264 260 255 251 248 241 233 228 223 221 220 219 222 221 222 221 219 219 223 225 234 239 240 247 246 246 248 250 253 256 259 262 267 272 277 281 285 291 298 295 300 297 305 304 301
272 267 267 266 265 260 257 250 241 237 231 227 222 219 217 217 219 219 217 218 219 218 219 226 225 236 240 236 244 248 248 248 251 254 257 261 266 271 275 280 287 291 294 297 306 306 302 297 307
283 277 271 265 266 262 252 245 237 234 230 226 223 218 215 214 215 216 215 212 216 217 217 221 222 237 240 242 244 249 250 245 244 247 254 262 268 272 276 282 289 297 302 308 307 301 307 306 304
289 285 279 274 266 261 251 239 235 228 228 227 223 218 215 212 213 213 211 211 211 214 211 216 225 234 238 239 241 247 248 241 242 247 252 262 267 270 276 284 292 297 302 301 299 301 308 301 305
300 295 285 276 271 261 250 235 240 228 228 228 224 219 215 210 210 211 206 209 209 209 206 209 219 221 231 238 240 246 250 245 243 243 251 259 263 269 278 282 293 296 297 297 299 301 305 305 306
307 301 288 280 276 266 249 238 234 231 226 228 225 220 219 212 208 208 202 207 206 206 201 202 207 216 224 231 235 238 246 251 251 253 257 259 266 268 278 291 290 290 294 302 310 313 309 311 309
318 312 303 293 282 268 255 246 234 235 224 225 224 219 217 215 207 207 201 205 203 202 198 203 212 223 220 226 229 236 241 246 248 248 255 259 263 274 282 284 285 290 297 315 319 320 315 311 314
322 317 313 303 285 273 260 246 233 231 224 221 224 218 214 214 207 206 197 205 203 201 197 196 203 210 216 229 220 233 243 245 247 247 251 265 273 270 271 281 282 271 301 315 313 317 312 317 321
324 320 321 315 298 294 266 249 237 226 223 221 220 217 213 211 207 203 196 204 204 200 196 203 205 207 210 223 224 233 237 239 234 236 249 266 272 274 270 244 260 283 300 310 317 316 310 315 323
327 321 326 321 315 285 260 244 232 227 224 221 219 215 214 209 207 202 196 200 204 201 198 204 206 210 211 223 225 234 227 222 240 244 248 253 256 248 239 252 273 309 314 317 316 309 303 311 318
329 325 329 327 310 271 256 243 231 229 227 220 218 216 213 209 204 202 197 196 205 202 199 201 206 214 213 218 213 229 226 227 231 238 243 237 233 238 251 271 287 295 309 313 305 293 301 317 322
330 330 335 329 312 288 261 246 239 223 225 219 214 213 212 208 202 201 197 196 202 202 202 205 206 213 207 215 204 208 222 214 218 224 213 223 230 248 267 276 290 297 298 305 296 296 307 317 322
Height
10904 10907 10911 10915 10920 10921 10916 10912 10909 10918 10926 10935 10943 10948 10955 10958 10966 10971 10970 10972 10975 10979 10982 10983 10981 10982 10984 10983 10987 10988 10988 10986 10986 10986 10986 10987 10987 10987 10988 10990 10991 10990 10990 10990 10989 10987 10987 10986 10983
10893 10898 10903 10909 10916 10915 10903 10899 10903 10909 10921 10930 10940 10946 10950 10955 10959 10965 10970 10972 10973 10975 10978 10981 10982 10982 10983 10980 10984 10986 10986 10985 10984 10985 10985 10985 10986 10986 10987 10988 10988 10987 10987 10987 10986 10985 10983 10982 10980
10884 10889 10893 10901 10906 10899 10892 10890 10899 10905 10912 10924 10934 10943 10946 10950 10955 10959 10963 10969 10972 10972 10975 10978 10980 10980 10979 10978 10980 10983 10983 10985 10982 10983 10984 10983 10984 10984 10986 10986 10986 10984 10984 10983 10983 10982 10981 10978 10976
10871 10877 10884 10891 10891 10888 10882 10880 10894 10900 10904 10917 10927 10935 10941 10946 10949 10954 10958 10963 10964 10967 10970 10972 10976 10973 10975 10974 10976 10980 10979 10981 10980 10980 10981 10982 10982 10983 10984 10984 10983 10982 10981 10981 10981 10979 10978 10976 10972
10861 10866 10873 10877 10875 10874 10873 10870 10883 10893 10897 10907 10918 10927 10931 10935 10938 10946 10952 10959 10960 10962 10964 10966 10972 10974 10973 10974 10974 10978 10978 10979 10978 10977 10978 10980 10980 10980 10983 10983 10983 10980 10979 10979 10979 10976 10974 10972 10968
10852 10854 10860 10861 10861 10861 10864 10858 10871 10886 10890 10894 10908 10915 10923 10925 10929 10935 10943 10951 10954 10959 10960 10963 10965 10967 10970 10973 10972 10973 10975 10976 10976 10976 10976 10977 10977 10978 10980 10980 10979 10977 10977 10977 10976 10973 10970 10968 10963
10841 10844 10848 10846 10845 10845 10845 10846 10858 10873 10884 10883 10895 10903 10914 10917 10922 10927 10935 10940 10945 10949 10952 10955 10959 10962 10964 10965 10970 10969 10970 10971 10972 10973 10973 10974 10975 10976 10977 10976 10975 10974 10974 10974 10972 10969 10967 10962 10958
10828 10831 10834 10833 10832 10833 10832 10835 10842 10855 10870 10876 10882 10894 10902 10909 10913 10918 10925 10931 10934 10938 10943 10947 10951 10956 10959 10962 10964 10966 10966 10967 10967 10969 10970 10971 10972 10973 10972 10971 10970 10970 10971 10970 10970 10966 10964 10957 10953
10815 10817 10817 10817 10819 10823 10820 10825 10831 10840 10856 10866 10871 10880 10889 10896 10901 10909 10915 10919 10921 10924 10931 10935 10943 10947 10952 10956 10958 10959 10960 10961 10962 10964 10966 10967 10968 10968 10968 10967 10966 10966 10967 10966 10965 10962 10960 10952 10948
10800 10800 10801 10802 10803 10806 10808 10817 10812 10826 10838 10849 10857 10863 10871 10880 10890 10901 10905 10908 10913 10915 10919 10929 10933 10939 10944 10948 10951 10953 10954 10955 10956 10958 10962 10962 10964 10964 10963 10963 10962 10962 10962 10961 10959 10956 10955 10948 10943
10783 10783 10784 10784 10786 10788 10794 10803 10797 10813 10821 10822 10837 10846 10855 10865 10880 10890 10895 10901 10908 10913 10914 10916 10922 10930 10934 10940 10943 10945 10948 10949 10951 10953 10955 10958 10959 10960 10957 10958 10959 10958 10957 10956 10954 10952 10949 10943 10937
10765 10764 10764 10762 10765 10770 10778 10782 10785 10795 10805 10804 10815 10830 10837 10849 10862 10875 10882 10889 10895 10902 10907 10908 10913 10918 10926 10929 10933 10938 10941 10943 10946 10948 10951 10952 10955 10954 10951 10951 10955 10954 10953 10951 10949 10946 10943 10938 10933
10744 10744 10744 10742 10745 10750 10759 10764 10763 10776 10780 10777 10789 10810 10823 10834 10843 10856 10870 10876 10884 10891 10897 10901 10903 10909 10914 10922 10924 10929 10934 10937 10940 10943 10946 10947 10948 10947 10946 10946 10949 10948 10948 10945 10943 10941 10938 10932 10928
10723 10722 10719 10720 10723 10726 10735 10738 10740 10744 10753 10757 10768 10792 10806 10818 10828 10840 10856 10865 10872 10878 10887 10891 10892 10897 10902 10908 10914 10921 10926 10928 10932 10936 10939 10940 10940 10940 10940 10941 10943 10942 10941 10939 10939 10936 10932 10927 10922
10699 10696 10696 10695 10698 10706 10711 10714 10715 10716 10722 10730 10743 10770 10786 10802 10812 10822 10836 10849 10857 10869 10875 10881 10881 10886 10891 10896 10904 10911 10915 10920 10925 10928 10930 10931 10932 10933 10934 10936 10937 10935 10935 10933 10932 10931 10926 10923 10915
10669 10668 10666 10666 10671 10679 10685 10680 10685 10683 10686 10698 10714 10741 10764 10775 10793 10807 10817 10833 10843 10853 10859 10865 10869 10876 10882 10887 10892 10902 10907 10911 10915 10919 10922 10922 10923 10926 10929 10930 10928 10928 10928 10927 10924 10922 10919 10916 10909
10637 10635 10634 10634 10637 10646 10654 10647 10652 10656 10656 10668 10686 10712 10736 10751 10769 10784 10798 10813 10827 10836 10844 10852 10859 10864 10870 10878 10884 10890 10897 10902 10906 10909 10911 10913 10915 10919 10922 10922 10921 10921 10921 10920 10919 10915 10913 10909 10904
10607 10604 10601 10603 10603 10614 10620 10618 10624 10624 10626 10637 10653 10682 10704 10726 10744 10760 10774 10791 10807 10821 10833 10840 10848 10854 10860 10866 10872 10881 10886 10892 10894 10899 10901 10905 10908 10912 10914 10914 10914 10915 10913 10913 10911 10909 10907 10903 10897
10580 10576 10574 10571 10569 10583 10586 10593 10589 10590 10595 10600 10619 10649 10675 10701 10714 10738 10755 10773 10792 10808 10817 10830 10837 10843 10847 10851 10858 10866 10871 10879 10884 10889 10893 10899 10902 10904 10907 10906 10906 10908 10908 10908 10906 10903 10900 10895 10891
10556 10554 10549 10547 10545 10557 10549 10563 10558 10555 10562 10569 10589 10616 10647 10675 10696 10714 10737 10756 10773 10787 10805 10817 10826 10830 10830 10837 10843 10852 10859 10867 10876 10879 10885 10891 10895 10896 10900 10899 10899 10900 10900 10902 10900 10895 10890 10888 10885
10530 10532 10529 10526 10519 10518 10519 10531 10532 10525 10536 10540 10557 10587 10618 10647 10671 10693 10720 10742 10755 10775 10797 10805 10813 10814 10816 10826 10835 10841 10847 10854 10864 10868 10876 10883 10888 10888 10891 10893 10894 10893 10892 10894 10892 10889 10887 10881 10875
10515 10511 10506 10499 10495 10489 10493 10504 10497 10500 10508 10512 10525 10558 10589 10621 10651 10673 10703 10726 10746 10761 10780 10791 10799 10800 10806 10815 10823 10830 10838 10845 10851 10861 10872 10879 10881 10881 10884 10886 10886 10886 10887 10887 10884 10884 10879 10874 10865
10499 10492 10485 10477 10471 10471 10467 10477 10471 10481 10487 10493 10508 10540 10566 10600 10629 10660 10697 10713 10727 10744 10767 10778 10785 10789 10795 10805 10813 10822 10831 10838 10845 10853 10862 10869 10873 10875 10879 10879 10880 10880 10880 10877 10876 10875 10873 10868 10861
10484 10476 10468 10459 10455 10453 10449 10458 10453 10465 10469 10478 10497 10526 10556 10588 10617 10644 10677 10688 10713 10730 10749 10760 10768 10777 10785 10795 10805 10816 10825 10834 10841 10849 10854 10860 10865 10868 10870 10871 10873 10874 10872 10870 10869 10866 10864 10858 10854
10472 10460 10454 10447 10441 10440 10437 10439 10443 10442 10459 10464 10481 10508 10538 10571 10604 10629 10662 10683 10703 10721 10737 10753 10760 10769 10778 10787 10796 10808 10819 10827 10835 10840 10846 10851 10856 10860 10861 10864 10865 10866 10865 10862 10860 10859 10855 10851 10846
10460 10450 10443 10436 10430 10428 10426 10427 10427 10437 10449 10452 10466 10490 10520 10542 10588 10621 10650 10666 10685 10700 10726 10739 10748 10757 10769 10783 10792 10802 10810 10819 10829 10833 10836 10842 10846 10850 10853 10856 10857 10856 10855 10855 10853 10851 10847 10844 10838
10452 10441 10434 10429 10424 10421 10420 10419 10423 10429 10430 10441 10453 10480 10499 10526 10567 10598 10630 10648 10669 10688 10711 10728 10737 10751 10766 10778 10789 10794 10802 10812 10819 10822 10828 10836 10841 10845 10846 10847 10848 10847 10848 10848 10846 10844 10843 10837 10831
10446 10437 10429 10422 10419 10414 10411 10409 10414 10417 10422 10434 10449 10468 10485 10515 10551 10585 10613 10633 10655 10678 10693 10710 10729 10744 10761 10774 10780 10785 10794 10804 10812 10815 10822 10831 10836 10838 10838 10838 10839 10838 10841 10839 10839 10838 10835 10831 10826
10441 10431 10425 10419 10414 10409 10404 10404 10408 10415 10421 10429 10442 10458 10478 10505 10537 10572 10599 10624 10641 10659 10684 10704 10721 10739 10757 10767 10777 10779 10786 10796 10806 10812 10816 10824 10827 10829 10831 10830 10833 10832 10832 10833 10833 10831 10829 10823 10818
10435 10426 10420 10416 10411 10406 10401 10402 10405 10412 10411 10420 10431 10449 10467 10489 10520 10550 10582 10611 10633 10656 10677 10699 10717 10732 10749 10761 10770 10775 10780 10789 10800 10807 10811 10814 10818 10821 10824 10827 10826 10826 10827 10827 10826 10826 10822 10817 10809